Location: Dugenta
(41.1333°N, 14.4500°E)
Time: 13:31:52
(UTC+00:00)

DELTA 2 R/B (1) - Pass Details

Date: 03 March 2021
Orbit: 790 x 803 km, 39.6° (Epoch: 20 April)

Event Time Altitude Azimuth Distance (km) Brightness Sun altitude
Rises 18:42:33 0° 229° (SW) 3,272 7.3 -20.9°
Reaches altitude 10° 18:45:10 10° 222° (SW) 2,343 6.4 -21.4°
Maximum altitude 18:50:15 38° 155° (SSE) 1,179 4.1 -22.3°
Enters shadow 18:50:25 38° 151° (SSE) 1,181 4.1 -22.3°
